Location: Houhaj�rvi
(61.2833°N, 23.0000°E)
Time: 08:04:46
(UTC+00:00)

Cosmos 220 Rocket - Pass Details

Date: 27 February 2020
Orbit: 576 x 616 km, 74.0° (Epoch: 30 March)

Event Time Altitude Azimuth Distance (km) Brightness Sun altitude
Rises 18:35:35 0° 211° (SSW) 2,823 7.6 -20.8°
Reaches altitude 10° 18:37:49 10° 211° (SSW) 1,919 6.7 -21.1°
Maximum altitude 18:42:06 87° 126° (SE) 594 3.8 -21.5°
Enters shadow 18:44:53 21° 35° (NE) 1,330 5.6 -21.8°
